Terug naar catalogus

ONEWEB-0500

ActiefCommunicatiePO
NORAD 54118·PAYLOAD·🇬🇧 United Kingdom

Gelanceerd Oct 22, 2022 vanaf Satish Dhawan Space Centre

Loading…

Volgende Passages (komende 24 uur)

TLE

VersSource: CelesTrak SupGP

Epoch: Sep 15, 2026, 01:26 UTC

1 54118C 22138F   26258.05987686  .00000379  00000+0  94892-3 0  2588
2 54118  87.9116 287.0652 0001859  91.0792 292.8691 13.19723855    16

Volg ONEWEB-0500 in realtime met AllMySat

Download on the App Store